sat.trackr.live / text

‹ back to catalog

STARLINK-5383

NORAD 54827 · 2022-177H

PAYLOAD ACTIVE UNKNOWN

§ Identity

Operator
Country
US
Launch date
2022-12-28
Launch site
AFETR
Launch vehicle
Mass (kg)
RCS (m²)

Purposes: comms

External: N2YO · Heavens-Above · Gunter

§ Orbital elements

Epoch: 2026-09-20T22:45:14.690016Z

Period
94.27 min
Inclination
43.0015°
Eccentricity
0.0000981
Mean motion
15.27575483 rev/d
Perigee alt
482.4 km
Apogee alt
483.7 km
Semi-major
6,861.2 km
B*
4.9182e-7
RAAN
113.5110°
Arg perigee
253.4598°
Mean anomaly
106.6146°
Rev number
20,678

§ Raw data

STARLINK-53831 54827U 22177H   26263.94808669 -.00000248  00000+0  49182-6 0  99982 54827  43.0015 113.5110 0000981 253.4598 106.6146 15.27575483206781

JSON: /api/v1/satellites/54827 · /tle

For live sub-satellite position, see the globe view (requires WebGL).

§ Visibility from observer

Set your observer location to see the next 7 days of passes ≥ 10°. The values pass through the URL so the page stays shareable.

No JS? Fill the form by hand. The geolocation button needs JavaScript.